Weather History for Gizan, Saudi Arabia

Change the Weather History Date:

Tuesday, November 27, 2012

  Actual Average Record
Temperature  
Mean Temperature 84 °F -  
Max Temperature 91 °F 85 °F 93 °F (2013)
Min Temperature 78 °F 71 °F 69 °F (1998)
Cooling Degree Days 20    
Growing Degree Days 34 (Base 50)    
Moisture  
Dew Point 75 °F    
Average Humidity 71    
Maximum Humidity 84    
Minimum Humidity 53    
Precipitation  
Precipitation 0.00 in - - ()
Sea Level Pressure  
Sea Level Pressure 29.88 in    
Wind  
Wind Speed 3 mph ()    
Max Wind Speed 14 mph    
Max Gust Speed -    
Visibility 6.1 miles    
Events      
Averages and records for this station are not official NWS values.
T = Trace of Precipitation, MM = Missing Value Source: Averaged Metar Reports

Daily Weather History Graph

Daily Weather History Graph

Search for Another Location

Airport:

Trip Planner

Search our weather history database for the weather conditions in past years. The results will help you decide how hot, cold, wet, or windy it might be!

Date:

Astronomy

Nov. 27, 2012 Rise Set
Actual Time 6:20 AM AST 5:34 PM AST
Civil Twilight 5:57 AM AST 5:57 PM AST
Nautical Twilight 5:30 AM AST 6:23 PM AST
Astronomical Twilight 5:04 AM AST 6:50 PM AST
Moon 4:47 PM AST (11/27) 5:11 AM AST (11/27)
Length of Visible Light 11h 59m
Length of Day
11h 13m
Waxing Gibbous, 99% of the Moon is Illuminated
Nov 27
Waxing Gibbous
Nov 28
Full
Dec 6
Last Quarter
Dec 13
New
Dec 20
First Quarter

Hourly Weather History & Observations

Time (AST) Temp. Heat Index Dew Point Humidity Pressure Visibility Wind Dir Wind Speed Gust Speed Precip Events Conditions
12:00 AM 82 °F - 73 °F 69% 29.89 in 6 mi Calm Calm - -   Scattered Clouds
12:00 AM 82.4 °F 88.2 °F 73.4 °F 74% 29.89 in 6.2 mi Calm Calm - N/A   Partly Cloudy
1:00 AM 80.6 °F 85.4 °F 73.4 °F 79% 29.89 in 6.2 mi Calm Calm - N/A   Partly Cloudy
2:00 AM 80.6 °F 85.4 °F 73.4 °F 79% 29.86 in 6.2 mi Calm Calm - N/A   Partly Cloudy
3:00 AM 81 °F - 73 °F 72% 29.86 in 6 mi Calm Calm - -   Scattered Clouds
3:00 AM 80.6 °F 85.4 °F 73.4 °F 79% 29.86 in 6.2 mi Calm Calm - N/A   Partly Cloudy
4:00 AM 80.6 °F 86.2 °F 75.2 °F 84% 29.86 in 6.2 mi Calm Calm - N/A   Scattered Clouds
5:00 AM 80.6 °F 85.4 °F 73.4 °F 79% 29.86 in 6.2 mi Calm Calm - N/A   Partly Cloudy
6:00 AM 80 °F - 73 °F 75% 29.86 in 6 mi Calm Calm - -   Scattered Clouds
6:00 AM 80.6 °F 85.4 °F 73.4 °F 79% 29.89 in 6.2 mi Calm Calm - N/A   Partly Cloudy
7:00 AM 80.6 °F 85.4 °F 73.4 °F 79% 29.89 in 6.2 mi Calm Calm - N/A   Partly Cloudy
8:00 AM 84.2 °F 92.3 °F 75.2 °F 74% 29.92 in 6.2 mi ESE 3.5 mph - N/A   Partly Cloudy
9:00 AM 88 °F - 75 °F 58% 29.92 in 6 mi SSE 6.9 mph - -   Scattered Clouds
9:00 AM 87.8 °F 97.6 °F 75.2 °F 66% 29.92 in 6.2 mi SSE 6.9 mph - N/A   Partly Cloudy
10:00 AM 87.8 °F 97.6 °F 75.2 °F 66% 29.92 in 6.2 mi SSW 4.6 mph - N/A   Scattered Clouds
11:00 AM 89.6 °F 102.2 °F 77.0 °F 66% 29.92 in 6.2 mi SSW 8.1 mph - N/A   Scattered Clouds
12:00 PM 90 °F - 75 °F 53% 29.86 in 6 mi SW 10.4 mph - -   Partly Cloudy
12:00 PM 89.6 °F 99.8 °F 75.2 °F 62% 29.89 in 6.2 mi SW 10.4 mph - N/A   Scattered Clouds
1:00 PM 89.6 °F 102.2 °F 77.0 °F 66% 29.86 in 6.2 mi SW 13.8 mph - N/A   Scattered Clouds
2:00 PM 89.6 °F 102.2 °F 77.0 °F 66% 29.86 in 6.2 mi SW 12.7 mph - N/A   Scattered Clouds
3:00 PM 88 °F - 77 °F 63% 29.83 in 6 mi SW 12.7 mph - -   Mostly Cloudy
3:00 PM 87.8 °F 99.7 °F 77.0 °F 70% 29.83 in 6.2 mi SW 12.7 mph - N/A   Mostly Cloudy
4:00 PM 86.0 °F 95.1 °F 75.2 °F 70% 29.83 in 6.2 mi WSW 13.8 mph - N/A   Scattered Clouds
5:00 PM 86.0 °F 95.1 °F 75.2 °F 70% 29.83 in 6.2 mi WSW 10.4 mph - N/A   Scattered Clouds
6:00 PM 84 °F - 75 °F 68% 29.83 in 6 mi WSW 5.8 mph - -   Partly Cloudy
7:00 PM 84.2 °F 92.3 °F 75.2 °F 74% 29.89 in 6.2 mi West 8.1 mph - N/A   Scattered Clouds
8:00 PM 84.2 °F 92.3 °F 75.2 °F 74% 29.89 in 6.2 mi West 5.8 mph - N/A   Mostly Cloudy
9:00 PM 84 °F - 75 °F 68% 29.89 in 6 mi West 4.6 mph - -   Partly Cloudy
9:00 PM 84.2 °F 92.3 °F 75.2 °F 74% 29.92 in 6.2 mi West 4.6 mph - N/A   Scattered Clouds
10:00 PM 84.2 °F 92.3 °F 75.2 °F 74% 29.92 in 6.2 mi WSW 4.6 mph - N/A   Scattered Clouds
11:00 PM 84.2 °F 92.3 °F 75.2 °F 74% 29.92 in 6.2 mi West 4.6 mph - N/A   Scattered Clouds